Birmingham, AL

8:43 AM CDT on August 19, 2017 (GMT -0500)
Birmingham International

Weather History for KBHM - June, 2013

Change the Weather History Date:

Saturday, June 29, 2013

  Actual Average Record
Temperature  
Mean Temperature 82 °F 80 °F  
Max Temperature 90 °F 90 °F 106 °F (1931)
Min Temperature 73 °F 70 °F 57 °F (1974)
Cooling Degree Days 17 15  
Month to date cooling degree days 408 368  
Year to date cooling degree days 673 650  
Since 1 June cooling degree days 408 368  
Growing Degree Days 31 (Base 50)    
Moisture  
Dew Point 67 °F    
Average Humidity 64    
Maximum Humidity 93    
Minimum Humidity 34    
Precipitation  
Precipitation 0.00 in 0.16 in 3.30 in (1963)
Month to date precipitation 8.66 4.22  
Year to date precipitation 39.17 28.19  
Sea Level Pressure  
Sea Level Pressure 29.74 in    
Wind  
Wind Speed 5 mph (West)    
Max Wind Speed 14 mph    
Max Gust Speed 21 mph    
Visibility 9 miles    
Events      
T = Trace of Precipitation, MM = Missing Value Source: NWS Daily Summary

Daily Weather History Graph

Daily Weather History Graph

Search for Another Location

Airport or City:

Trip Planner

Search our weather history database for the weather conditions in past years. The results will help you decide how hot, cold, wet, or windy it might be!

Date:

Astronomy

Jun. 29, 2013 Rise Set
Actual Time 5:39 AM CDT 8:01 PM CDT
Civil Twilight 5:10 AM CDT 8:30 PM CDT
Nautical Twilight 4:35 AM CDT 9:05 PM CDT
Astronomical Twilight 3:56 AM CDT 9:44 PM CDT
Moon No Moon Rise 12:29 PM CDT (6/29)
Length of Visible Light 15h 19m
Length of Day
14h 21m
Waning Gibbous, 55% of the Moon is Illuminated
Jun 29
Waning Gibbous
Jun 29
Last Quarter
Jul 8
New
Jul 15
First Quarter
Jul 22
Full

Hourly Weather History & Observations

Time (CDT) Temp. Heat Index Dew Point Humidity Pressure Visibility Wind Dir Wind Speed Gust Speed Precip Events Conditions
12:53 AM 73.9 °F - 71.1 °F 91% 29.74 in 10.0 mi WSW 6.9 mph - N/A   Scattered Clouds
1:03 AM 73.4 °F - 71.6 °F 94% 29.76 in 10.0 mi WSW 5.8 mph - N/A   Mostly Cloudy
1:20 AM 73.4 °F - 71.6 °F 94% 29.76 in 10.0 mi WSW 4.6 mph - N/A   Mostly Cloudy
1:53 AM 73.9 °F - 71.1 °F 91% 29.74 in 10.0 mi SSW 5.8 mph - N/A   Overcast
2:53 AM 73.9 °F - 71.1 °F 91% 29.74 in 10.0 mi SSW 3.5 mph - N/A   Overcast
3:45 AM 73.4 °F - 71.6 °F 94% 29.75 in 9.0 mi South 3.5 mph - N/A   Scattered Clouds
3:53 AM 73.0 °F - 71.1 °F 93% 29.73 in 9.0 mi South 3.5 mph - N/A   Partly Cloudy
4:53 AM 73.9 °F - 71.1 °F 91% 29.74 in 7.0 mi West 3.5 mph - N/A   Mostly Cloudy
5:53 AM 73.0 °F - 71.1 °F 93% 29.74 in 4.0 mi West 3.5 mph - N/A   Overcast
6:02 AM 73.4 °F - 71.6 °F 94% 29.76 in 4.0 mi West 3.5 mph - N/A   Overcast
6:36 AM 73.4 °F - 71.6 °F 94% 29.76 in 5.0 mi WNW 3.5 mph - N/A   Overcast
6:53 AM 73.0 °F - 71.1 °F 93% 29.74 in 5.0 mi Calm Calm - N/A   Overcast
7:53 AM 75.0 °F - 71.1 °F 87% 29.75 in 9.0 mi WNW 3.5 mph - N/A   Overcast
8:17 AM 75.2 °F - 69.8 °F 83% 29.78 in 8.0 mi Calm Calm - N/A   Mostly Cloudy
8:53 AM 77.0 °F - 70.0 °F 79% 29.76 in 8.0 mi Calm Calm - N/A   Mostly Cloudy
9:13 AM 78.8 °F - 69.8 °F 74% 29.78 in 9.0 mi Calm Calm - N/A   Partly Cloudy
9:53 AM 80.1 °F 83.2 °F 70.0 °F 71% 29.75 in 10.0 mi South 3.5 mph - N/A   Scattered Clouds
10:53 AM 82.9 °F 86.5 °F 69.1 °F 63% 29.75 in 10.0 mi West 9.2 mph - N/A   Partly Cloudy
11:53 AM 86.0 °F 87.6 °F 64.9 °F 49% 29.74 in 10.0 mi WNW 10.4 mph 16.1 mph N/A   Partly Cloudy
12:53 PM 84.9 °F 85.9 °F 63.0 °F 48% 29.74 in 10.0 mi West 8.1 mph - N/A   Mostly Cloudy
1:53 PM 88.0 °F 89.3 °F 64.0 °F 45% 29.72 in 10.0 mi NNW 9.2 mph - N/A   Scattered Clouds
2:53 PM 87.1 °F 86.5 °F 59.0 °F 39% 29.71 in 10.0 mi NW 11.5 mph - N/A   Scattered Clouds
3:53 PM 89.1 °F 88.0 °F 57.9 °F 35% 29.70 in 10.0 mi NW 9.2 mph 16.1 mph N/A   Partly Cloudy
4:42 PM 89.6 °F 88.1 °F 57.2 °F 33% 29.71 in 10.0 mi North 13.8 mph 18.4 mph N/A   Partly Cloudy
4:53 PM 88.0 °F 86.7 °F 57.0 °F 35% 29.68 in 10.0 mi North 12.7 mph - N/A   Partly Cloudy
5:53 PM 88.0 °F 86.5 °F 55.9 °F 34% 29.68 in 10.0 mi NNW 9.2 mph - N/A   Scattered Clouds
6:53 PM 84.9 °F 84.8 °F 60.1 °F 43% 29.69 in 10.0 mi North 5.8 mph - N/A   Clear
7:53 PM 81.0 °F 82.2 °F 63.0 °F 54% 29.70 in 10.0 mi Calm Calm - N/A   Clear
8:53 PM 78.1 °F - 64.0 °F 62% 29.71 in 10.0 mi Calm Calm - N/A   Mostly Cloudy
9:53 PM 77.0 °F - 66.0 °F 69% 29.73 in 10.0 mi Calm Calm - N/A   Mostly Cloudy
10:53 PM 75.0 °F - 66.0 °F 73% 29.74 in 10.0 mi Calm Calm - N/A   Partly Cloudy
11:53 PM 73.9 °F - 66.0 °F 76% 29.74 in 10.0 mi Calm Calm - N/A   Mostly Cloudy